Change the Weather History Date:

Friday, September 16, 2011

  Actual Average Record
Temperature  
Mean Temperature 82 °F 83 °F  
Max Temperature 89 °F 89 °F 94 °F (1968)
Min Temperature 75 °F 78 °F 67 °F (1914)
Degree Days  
Heating Degree Days 0 0  
Month to date heating degree days 0 0  
Since 1 July heating degree days 0 0  
Cooling Degree Days 17 18  
Month to date cooling degree days 299 294  
Year to date cooling degree days 3584 3460  
Growing Degree Days 32 (Base 50)    
Moisture  
Dew Point 70 °F    
Average Humidity 68    
Maximum Humidity 82    
Minimum Humidity 53    
Precipitation  
Precipitation 0.00 in 0.31 in 3.20 in (1950)
Month to date precipitation 5.15 4.54  
Year to date precipitation 22.18 45.61  
Snow  
Snow 0.00 in - - ()
Month to date snowfall 0.0  
Since 1 July snowfall 0.0  
Since 1 September snowfall 0.0  
Snow Depth 0.00 in    
Sea Level Pressure  
Sea Level Pressure 30.03 in    
Wind  
Wind Speed 7 mph (ENE)    
Max Wind Speed 15 mph    
Max Gust Speed 20 mph    
Visibility 10 miles    
Events      
T = Trace of Precipitation, MM = Missing Value Source: NWS Daily Summary

Daily Weather History Graph

Daily Weather History Graph

Search for Another Location

Airport or City:

Trip Planner

Search our weather history database for the weather conditions in past years. The results will help you decide how hot, cold, wet, or windy it might be!

Date:

Astronomy

Sep. 16, 2011 Rise Set
Actual Time 7:06 AM EDT 7:24 PM EDT
Civil Twilight 6:43 AM EDT 7:47 PM EDT
Nautical Twilight 6:16 AM EDT 8:13 PM EDT
Astronomical Twilight 5:49 AM EDT 8:41 PM EDT
Moon 9:46 PM EDT (9/16) 10:39 AM EDT (9/16)
Length of Visible Light 13h 03m
Length of Day
12h 17m
Waning Gibbous, 84% of the Moon is Illuminated
Sep 16
Waning Gibbous
Sep 20
Last Quarter
Sep 27
New
Oct 3
First Quarter
Oct 11
Full

Hourly Weather History & Observations

Time (EDT) Temp. Heat Index Dew Point Humidity Pressure Visibility Wind Dir Wind Speed Gust Speed Precip Events Conditions
12:53 AM 80.1 °F 82.9 °F 69.1 °F 69% 30.00 in 10.0 mi ESE 3.5 mph - N/A   Clear
1:53 AM 79.0 °F - 69.1 °F 72% 29.99 in 10.0 mi Calm Calm - N/A   Clear
2:53 AM 78.1 °F - 69.1 °F 74% 29.99 in 10.0 mi Calm Calm - N/A   Clear
3:53 AM 75.9 °F - 70.0 °F 82% 29.98 in 10.0 mi Calm Calm - N/A   Clear
4:53 AM 75.9 °F - 70.0 °F 82% 29.98 in 10.0 mi Calm Calm - N/A   Clear
5:53 AM 77.0 °F - 70.0 °F 79% 30.00 in 10.0 mi NNW 3.5 mph - N/A   Clear
6:53 AM 75.9 °F - 70.0 °F 82% 30.02 in 10.0 mi Calm Calm - N/A   Partly Cloudy
7:53 AM 79.0 °F - 70.0 °F 74% 30.04 in 10.0 mi Calm Calm - N/A   Partly Cloudy
8:53 AM 82.0 °F 85.9 °F 70.0 °F 67% 30.05 in 10.0 mi North 5.8 mph - N/A   Partly Cloudy
9:53 AM 84.9 °F 89.4 °F 70.0 °F 61% 30.06 in 10.0 mi Variable 3.5 mph - N/A   Partly Cloudy
10:53 AM 87.1 °F 92.0 °F 70.0 °F 57% 30.06 in 10.0 mi NNE 5.8 mph - N/A   Partly Cloudy
11:53 AM 88.0 °F 92.1 °F 69.1 °F 53% 30.07 in 10.0 mi ENE 10.4 mph - N/A   Partly Cloudy
12:53 PM 88.0 °F 92.1 °F 69.1 °F 53% 30.05 in 10.0 mi NE 6.9 mph - N/A   Partly Cloudy
1:53 PM 88.0 °F 91.4 °F 68.0 °F 51% 30.04 in 10.0 mi ENE 8.1 mph - N/A   Partly Cloudy
2:53 PM 87.1 °F 91.3 °F 69.1 °F 55% 30.02 in 10.0 mi ENE 10.4 mph 19.6 mph N/A   Partly Cloudy
3:53 PM 87.1 °F 92.0 °F 70.0 °F 57% 30.02 in 10.0 mi ENE 12.7 mph - N/A   Partly Cloudy
4:53 PM 87.1 °F 91.3 °F 69.1 °F 55% 30.01 in 10.0 mi East 12.7 mph - N/A   Partly Cloudy
5:53 PM 86.0 °F 90.1 °F 69.1 °F 57% 30.01 in 10.0 mi East 12.7 mph 19.6 mph N/A   Partly Cloudy
6:53 PM 84.9 °F 89.4 °F 70.0 °F 61% 30.01 in 10.0 mi ENE 11.5 mph 19.6 mph N/A   Partly Cloudy
7:53 PM 84.0 °F 88.4 °F 70.0 °F 63% 30.02 in 10.0 mi ENE 11.5 mph - N/A   Partly Cloudy
8:53 PM 84.0 °F 89.0 °F 71.1 °F 65% 30.04 in 10.0 mi ENE 10.4 mph - N/A   Partly Cloudy
9:53 PM 82.9 °F 87.5 °F 71.1 °F 67% 30.06 in 10.0 mi ENE 12.7 mph - N/A   Partly Cloudy
10:53 PM 82.9 °F 87.5 °F 71.1 °F 67% 30.05 in 10.0 mi ENE 9.2 mph - N/A   Partly Cloudy
11:53 PM 82.9 °F 87.5 °F 71.1 °F 67% 30.05 in 10.0 mi ENE 9.2 mph - N/A   Partly Cloudy